Find Starlink 36931

NORAD ID: 68000 Int'l Des: 2026-039 Owner: SPXS Country: US Constellation: starlink operational
LEOCIRCULAR

Live-Position

3D-Globus wird geladen...

Über Starlink 36931

Beschreibung wird geladen...

Nächste Überflüge

Passes for default location (London). Set your location on the main map for personalized predictions.

Höhenverlauf

Loading altitude history...

Zweizeiliger Elementsatz

1 68000U 26039Q 26105.92882295 .00009251 00000-0 34507-3 0 9992
2 68000 42.9999 198.1832 0001912 276.8660 83.1974 15.27599951 7404
Epoch: 15. Apr. 2026 • Age: 19 hours

Aktueller Status

Höhe 487.9 km
Geschwindigkeit 7.62 km/s
Subsatellitenpunkt -24.43°S, 65.55°E
Startdatum 27. Feb. 2026
Alter 0.1 years
Typ internet

Technische Details

Klassifizierung Payload
Masse 575.00 kg
Trockenmasse 530.00 kg
Gesamtmasse 575.00 kg
Länge 0.30 m
Durchmesser 4.10 m
Spannweite 29.00 m
Form Box + pan
Hersteller SPXS
Bus-Typ Starlink V2MO
Phasenstatus In Orbit
Besitzer/Staat SPXS/US

Most Searched